Regional Weather Roundup
Issued by NWS

Home | Current Version | Previous Version | Text Only | Print | Product List | Glossary On
Versions: 1 2 3 4 5 6 7 8 9 10 11 12 13 14 15 16 17 18 19 20 21 22 23 24 25 26 27 28
000
ASUS45 KPSR 110710
RWRAZ

ARIZONA HOURLY REGIONAL WEATHER ROUNDUP
NATIONAL WEATHER SERVICE PHOENIX AZ
1200 AM MST SUN DEC 11 2016

NOTE: FAIR INDICATES FEW OR NO CLOUDS BELOW 12,000 FEET WITH NO
SIGNIFICANT WEATHER AND/OR OBSTRUCTIONS TO VISIBILITY.

AZZ001>003-036-110800-
NORTHWEST ARIZONA

CITY           SKY/WX    TMP DP  RH WIND       PRES   REMARKS
BULLHEAD CITY  CLOUDY    57  37  47 CALM      30.00F
KINGMAN        MOCLDY    49  34  56 S7        30.05F
$$

AZZ004>008-015-016-018-110800-
NORTH CENTRAL ARIZONA

CITY           SKY/WX    TMP DP  RH WIND       PRES   REMARKS
GRAND CANYON   CLOUDY    39  36  89 SW5       30.12S
WILLIAMS       PTCLDY    39  36  87 S12G18    30.13F WCI  32
PRESCOTT       MOCLDY    49  39  68 S5        30.13S
FLAGSTAFF      CLOUDY    38  33  82 SW6       30.14S WCI  33
PAYSON         PTCLDY    41  32  70 CALM      30.16F
PAGE           MOCLDY    43  26  51 CALM      30.00F
$$

AZZ009>014-017-110800-
NORTHEAST ARIZONA

CITY           SKY/WX    TMP DP  RH WIND       PRES   REMARKS
WINSLOW        CLOUDY    47  34  60 SW6       30.07F
SAINT JOHNS    PTCLDY    49  26  41 W16       30.07F
WINDOW ROCK    CLOUDY    39  29  67 S5        30.09F
SHOW LOW       MOCLDY    41  25  52 S22       30.13F
$$

AZZ023-110800-
GREATER PHOENIX AREA

CITY           SKY/WX    TMP DP  RH WIND       PRES   REMARKS
PHOENIX        CLOUDY    58  41  53 E7        30.03F
BUCKEYE        MOCLDY    54  37  54 CALM      30.05S
LUKE AFB       CLOUDY    54  43  67 N6        30.03F
DEER VALLEY    CLOUDY    56  39  53 CALM      30.04F
SCOTTSDALE     CLOUDY    56  42  59 CALM      30.06F
MESA-GATEWAY   CLEAR     52  36  54 SE3       30.06F
$$

AZZ027-028-110800-
SOUTHWEST MARICOPA COUNTY AND PINAL COUNTY

CITY           SKY/WX    TMP DP  RH WIND       PRES   REMARKS
CASA GRANDE    NOT AVBL
GILA BEND      FAIR      57  37  48 SE7       30.03S
$$

AZZ503-504-507>509-110800-
SOUTHEAST ARIZONA

CITY           SKY/WX    TMP DP  RH WIND       PRES   REMARKS
TUCSON         CLOUDY    53  33  46 SE7       30.11F
DAVIS-MONTHAN  CLOUDY    51  33  49 SE5       30.10F
NOGALES        CLOUDY    47  26  44 CALM      30.14F
SIERRA VISTA   CLOUDY    49  22  34 S6        30.16F
DOUGLAS        MOCLDY    44  26  49 CALM      30.15S
SAFFORD        CLOUDY    44  32  62 E5        30.09S
$$

AZZ020-021-025-026-031-110800-
SOUTHWEST ARIZONA

CITY           SKY/WX    TMP DP  RH WIND       PRES   REMARKS
YUMA           MOCLDY    58  35  42 S3        30.02S
$$

CAZ031-033-041-043-047-048-061-110800-
SOUTHERN CALIFORNIA

CITY           SKY/WX    TMP DP  RH WIND       PRES   REMARKS
DOWNTOWN L.A.  CLOUDY    60  58  92 CALM      30.12S
L.A. AIRPORT   CLOUDY    60  59  96 W7        30.13R
SAN DIEGO      CLOUDY    60  58  92 CALM      30.17S FOG
BURBANK        CLOUDY    58  54  86 SE6       30.11F FOG
ONTARIO        MOCLDY    57  54  89 CALM      30.13S FOG
RIVERSIDE      CLOUDY    57  55  93 CALM      30.14S FOG
PALM SPRINGS     N/A    N/A N/A N/A MISG        N/A
EL CENTRO NAS  MOCLDY    56  39  53 CALM      30.02S
IMPERIAL       MOCLDY    55  43  63 CALM      29.99F
BLYTHE         PTCLDY    59  37  44 E3        30.00F
NEEDLES        CLOUDY    57  30  35 NW3       30.00F
$$

NVZ020-UTZ003-110800-
SOUTHERN NEVADA-UTAH

CITY           SKY/WX    TMP DP  RH WIND       PRES   REMARKS
LAS VEGAS      PTCLDY    49  26  41 W5        30.01R
SALT LAKE CITY LGT RAIN  35  34  96 E3        29.94S
$$

NMZ009-TXZ055-110800-
NEW MEXICO-WEST TEXAS

CITY           SKY/WX    TMP DP  RH WIND       PRES   REMARKS
ALBUQUERQUE    CLOUDY    35  30  82 SE7       30.04S WCI  29
EL PASO        PTCLDY    46  37  71 S9        30.08F
$$


........................KEY........................
SKY/WX - SKY CONDITION/WEATHER
TMP    - TEMPERATURE IN FAHRENHEIT
DP     - DEW POINT IN FAHRENHEIT
RH     - RELATIVE HUMIDITY IN PERCENT
WIND   - DIRECTION AND SPEED IN MILES PER HOUR (MPH)
VRB    - VARIABLE WIND DIRECTION
PRES   - MEAN SEA LEVEL PRESSURE IN INCHES OF MERCURY
         F - FALLING PRESSURE   R - RISING PRESSURE
         S - STEADY PRESSURE
VSB    - VISIBILITY IN MILES
HX     - HEAT INDEX IN FAHRENHEIT
WCI    - WIND CHILL INDEX IN FAHRENHEIT
TC     - TEMPERATURE IN CELSIUS WHICH IS ALSO KNOWN AS
         TEMPERATURE IN CENTIGRADE
AFB    - AIR FORCE BASE
         LUKE AFB IS LUKE AIR FORCE BASE
         DAVIS-MONTHAN IS DAVIS-MONTHAN AIR FORCE BASE
NAS    - NAVAL AIR STATION
         EL CENTRO NAS IS EL CENTRO NAVAL AIR STATION
N/A    - NOT AVAILABLE





USA.gov is the U.S. government's official web portal to all federal, state and local government web resources and services.